Regional Weather Roundup
Issued by NWS

Home | Current Version | Previous Version | Text Only | Print | Product List | Glossary Off
Versions: 1 2 3 4 5 6 7 8 9 10 11 12 13 14 15 16 17 18 19 20 21 22 23 24 25 26 27 28 29 30 31 32 33 34 35 36 37 38 39 40 41 42 43 44 45 46 47 48 49 50

000
ASUS45 KSLC 191610
RWRUT

UTAH REGIONAL WEATHER ROUNDUP
NATIONAL WEATHER SERVICE SALT LAKE CITY UT
1000 AM MDT TUE AUG 19 2014

UTZ001>011-023>025-191700-

NORTHERN UTAH

CITY           SKY/WX    TMP DP  RH WIND       PRES   REMARKS
HILL AFB       CLOUDY    68  54  60 S18       30.01S
LOGAN          PTSUNNY   75  48  38 S12       29.97R
OGDEN          LGT RAIN  70  51  51 S14G22    29.99R
PROVO AIRPORT  LGT RAIN  64  55  72 SE6       30.05R
SALT LAKE CITY LGT RAIN  65  59  81 SE13      30.00R
VERNAL         CLOUDY    66  53  63 NE6       30.09F
WENDOVER       CLOUDY    70  50  49 SE17      29.96R
HEBER CITY     DRIZZLE   59  54  82 CALM      30.10R
WEST JORDAN    CLOUDY    64  63  94 S8        30.04R

$$

UTZ012>022-026-027-191700-

SOUTHERN UTAH

CITY           SKY/WX    TMP DP  RH WIND       PRES   REMARKS
BRYCE CANYON   CLOUDY    54  50  86 W5        30.19F
CEDAR CITY     LGT RAIN  56  55  97 CALM      30.12F FOG
MILFORD        RAIN      59  54  83 CALM      30.09R
MOAB/CYNLANDS  LGT RAIN  71  55  56 CALM      29.99S
PRICE          CLOUDY    68  48  48 CALM      30.09S
ST GEORGE      CLOUDY    66  61  82 W8        29.99S
KANAB          CLOUDY    63  63 100 NW7       30.10R

$$

REGIONAL REPORTS     COLORADO/ARIZONA

CITY           SKY/WX    TMP DP  RH WIND       PRES   REMARKS
CRAIG, CO      CLOUDY    64  45  49 NE5       30.13S
GRAND JUNCTION LGT RAIN  62  57  83 N21       30.03F
RIFLE          PTSUNNY   67  46  47 NW5       30.08S
MONTROSE       CLOUDY    73  47  39 E7        30.10S
CORTEZ         SUNNY     73  51  46 VRB5      30.11S
PAGE, AZ       CLOUDY    78  51  38 S6        29.99S
GRAND CANYON   CLOUDY    59  57  93 S7        30.15F
KINGMAN        PTSUNNY   71  64  78 SE8       29.97R
FLAGSTAFF      LGT RAIN  57  55  93 SW10      30.20R

$$

REGIONAL REPORTS    NEVADA/IDAHO/WYOMING

CITY           SKY/WX    TMP DP  RH WIND       PRES   REMARKS
LAS VEGAS, NV  MOSUNNY   79  65  62 NE12      29.84R
ELY            CLOUDY    58  52  80 S14       30.08F
ELKO           SUNNY     73  50  44 S12G23    29.95S
POCATELLO, ID  SUNNY     70  53  54 N13       29.92R
BURLEY         CLOUDY    68  53  58 SW3       29.88R
EVANSTON, WY   LGT RAIN  60  46  59 SW10      30.16R
ROCK SPRINGS   CLOUDY    66  35  31 SW10      30.12R

$$


USA.gov is the U.S. government's official web portal to all federal, state and local government web resources and services.